Richmond, British Columbia

4:23 AM PST on December 15, 2017 (GMT -0800)
Richmond

Weather History for 71892 - October, 2013

Change the Weather History Date:

Wednesday, October 30, 2013

  Actual Average Record
Temperature  
Mean Temperature 44 °F -  
Max Temperature 52 °F 48 °F - ()
Min Temperature 37 °F 37 °F - ()
Degree Days  
Heating Degree Days 20    
Moisture  
Dew Point 41 °F    
Average Humidity 81    
Maximum Humidity 93    
Minimum Humidity 54    
Precipitation  
Precipitation 0.12 in 0.22 in - ()
Sea Level Pressure  
Sea Level Pressure 30.09 in    
Wind  
Wind Speed 7 mph ()    
Max Wind Speed 13 mph    
Max Gust Speed 17 mph    
Visibility 13.0 miles    
Events Rain    
T = Trace of Precipitation, MM = Missing Value Source: Averaged Metar Reports

Daily Weather History Graph

Daily Weather History Graph

Search for Another Location

Airport or City:

Trip Planner

Search our weather history database for the weather conditions in past years. The results will help you decide how hot, cold, wet, or windy it might be!

Date:

Astronomy

Oct. 30, 2013 Rise Set
Actual Time 7:57 AM PDT 5:54 PM PDT
Civil Twilight 7:24 AM PDT 6:27 PM PDT
Nautical Twilight 6:47 AM PDT 7:04 PM PDT
Astronomical Twilight 6:10 AM PDT 7:41 PM PDT
Moon 3:32 AM PDT (10/30) 3:59 PM PDT (10/30)
Length of Visible Light 11h 02m
Length of Day
9h 56m
Waning Crescent, 16% of the Moon is Illuminated
Oct 30
Waning Crescent
Nov 3
New
Nov 9
First Quarter
Nov 17
Full
Nov 25
Last Quarter

Hourly Weather History & Observations

Time (PDT) Temp. Windchill Dew Point Humidity Pressure Visibility Wind Dir Wind Speed Gust Speed Precip Events Conditions
12:00 AM 41.0 °F 38.0 °F 35.6 °F 81% 30.03 in 20.0 mi ENE 4.6 mph - N/A   Scattered Clouds
1:00 AM 39.2 °F 35.0 °F 35.6 °F 87% 30.04 in 20.0 mi East 5.8 mph - N/A   Scattered Clouds
2:00 AM 37.4 °F 32.1 °F 33.8 °F 87% 30.04 in 20.0 mi East 6.9 mph - N/A   Partly Cloudy
3:00 AM 37.4 °F 33.8 °F 35.6 °F 93% 30.06 in 20.0 mi ESE 4.6 mph - N/A   Mostly Cloudy
4:00 AM 41.0 °F 35.8 °F 37.4 °F 87% 30.06 in 20.0 mi East 8.1 mph - N/A   Mostly Cloudy
5:00 AM 41 °F - 37 °F 82% 30.07 in 19 mi East 6.9 mph - -   Overcast
5:00 AM 41.0 °F 35.8 °F 37.4 °F 87% 30.07 in 20.0 mi East 8.1 mph - N/A   Overcast
6:00 AM 41.0 °F 35.2 °F 37.4 °F 87% 30.07 in 20.0 mi East 9.2 mph - N/A   Overcast
7:00 AM 42.8 °F 39.3 °F 37.4 °F 81% 30.09 in 20.0 mi ESE 5.8 mph - N/A   Overcast
8:00 AM 42.8 °F 37.5 °F 37.4 °F 81% 30.10 in 30.0 mi East 9.2 mph - N/A   Overcast
9:00 AM 44.6 °F 40.2 °F 39.2 °F 81% 30.11 in 30.0 mi ESE 8.1 mph - N/A   Overcast
10:00 AM 48.2 °F - 37.4 °F 66% 30.11 in 30.0 mi East 9.2 mph - N/A   Overcast
11:00 AM 49 °F - 38 °F 54% 30.12 in 28 mi ESE 11.5 mph - -   Overcast
11:00 AM 50.0 °F - 37.4 °F 62% 30.12 in 30.0 mi ESE 12.7 mph - N/A   Overcast
12:00 PM 51.8 °F - 39.2 °F 62% 30.12 in 30.0 mi ESE 10.4 mph - N/A   Mostly Cloudy
1:00 PM 51.8 °F - 39.2 °F 62% 30.12 in 30.0 mi ESE 12.7 mph - N/A   Overcast
2:00 PM 51.8 °F - 42.8 °F 71% 30.11 in 30.0 mi ESE 10.4 mph 17.3 mph N/A   Overcast
3:00 PM 51.8 °F - 42.8 °F 71% 30.10 in 30.0 mi ESE 9.2 mph - N/A   Overcast
3:50 PM 51.8 °F - 42.8 °F 71% 30.10 in 30.0 mi East 10.4 mph - N/A Rain Light Rain
4:00 PM 51.8 °F - 42.8 °F 71% 30.10 in 30.0 mi East 12.7 mph - N/A Rain Light Rain
5:00 PM 50 °F - 45 °F 77% 30.12 in 15 mi ESE 6.9 mph - - Rain Light Rain
5:00 PM 50.0 °F - 44.6 °F 82% 30.12 in 15.0 mi ESE 8.1 mph - N/A Rain Light Rain
5:50 PM 48.2 °F - 44.6 °F 87% 30.12 in 6.0 mi ESE 8.1 mph - N/A Rain Light Rain
6:00 PM 48.2 °F - 44.6 °F 87% 30.11 in 6.0 mi ESE 11.5 mph - N/A Rain Light Rain
6:29 PM 46.4 °F 42.9 °F 44.6 °F 93% 30.12 in 2.5 mi ESE 6.9 mph - N/A Rain Light Rain
6:41 PM 46.4 °F 42.9 °F 44.6 °F 93% 30.11 in 8.0 mi East 6.9 mph - N/A Rain Light Rain
7:00 PM 48.2 °F - 44.6 °F 87% 30.11 in 8.0 mi ENE 6.9 mph - N/A Rain Light Rain
8:00 PM 48.2 °F - 46.4 °F 93% 30.10 in 6.0 mi NNE 10.4 mph - N/A   Overcast
9:00 PM 48.2 °F - 44.6 °F 87% 30.09 in 6.0 mi NE 12.7 mph - N/A Rain Light Rain
10:00 PM 46.4 °F 40.7 °F 44.6 °F 93% 30.08 in 6.0 mi NE 12.7 mph - N/A Rain Light Rain
11:00 PM 48 °F - 46 °F 89% 30.08 in 7 mi NE 10.4 mph - - Rain Light Rain
11:00 PM 48.2 °F - 46.4 °F 93% 30.08 in 8.0 mi ENE 9.2 mph - N/A Rain Light Rain